EDT,Max TemperatureF,Mean TemperatureF,Min TemperatureF,Max Dew PointF,MeanDew PointF,Min DewpointF,Max Humidity, Mean Humidity, Min Humidity, Max Sea Level PressureIn, Mean Sea Level PressureIn, Min Sea Level PressureIn, Max VisibilityMiles, Mean VisibilityMiles, Min VisibilityMiles, Max Wind SpeedMPH, Mean Wind SpeedMPH, Max Gust SpeedMPH,PrecipitationIn, CloudCover, Events, WindDirDegrees
2013-7-1,77,69,62,68,65,61,100,90,65,29.90,29.86,29.78,10,9,1,15,5,23,2.29,6,Rain-Thunderstorm,35
2013-7-2,81,72,64,66,65,63,100,88,56,30.04,29.93,29.89,10,8,0,13,4,17,0.00,6,Fog,88
2013-7-3,81,70,60,70,66,59,100,88,58,30.11,30.08,30.02,10,8,1,17,4,17,0.00,5,Rain,236
2013-7-4,70,68,65,70,68,65,100,97,94,30.14,30.11,30.07,10,8,2,8,4,,0.00,7,Rain,133
2013-7-5,79,71,64,72,68,64,100,92,69,30.13,30.10,30.07,10,9,2,12,4,,0.00,7,Rain,111
2013-7-6,73,68,64,68,66,64,100,95,78,30.13,30.11,30.08,10,8,3,9,4,,0.78,6,Rain,175
2013-7-7,83,74,65,69,66,65,100,86,56,30.13,30.09,30.05,10,10,10,9,4,,0.00,4,,196
2013-7-8,88,76,65,73,70,65,100,73,53,30.16,30.12,30.06,10,10,7,9,4,,0.00,5,,205
2013-7-9,89,79,70,75,72,70,97,79,55,30.13,30.08,30.01,10,10,10,12,4,,0.00,3,Rain,209
2013-7-10,89,79,69,77,72,68,100,89,65,30.02,29.96,29.88,10,9,3,30,6,43,0.08,5,Rain-Thunderstorm,199
2013-7-11,82,74,67,72,68,61,100,92,51,30.00,29.96,29.94,10,6,0,13,3,,0.00,3,Fog-Rain,324
2013-7-12,81,70,61,61,58,56,87,67,45,30.08,30.04,30.00,10,10,10,13,7,23,0.00,1,,11
2013-7-13,80,71,62,68,62,59,90,73,55,30.09,30.05,30.02,10,10,10,18,7,36,0.00,1,Rain,49
2013-7-14,89,78,67,73,70,66,94,71,53,30.17,30.14,30.12,10,10,7,9,5,,0.00,3,Rain,90
2013-7-15,89,80,72,73,70,67,94,73,49,30.29,30.25,30.21,10,10,2,16,5,,0.00,2,Rain,118
2013-7-16,90,79,69,76,72,69,100,79,55,30.33,30.29,30.26,10,10,6,8,2,,0.00,1,Rain,315
2013-7-17,91,80,69,75,73,70,100,88,51,30.33,30.27,30.18,10,7,0,6,2,,0.00,2,Fog-Rain-Thunderstorm,347
2013-7-18,89,80,72,77,73,70,100,80,59,30.23,30.15,30.05,10,9,3,16,4,26,0.00,4,Rain-Thunderstorm,238
2013-7-19,90,82,75,74,71,66,91,68,57,30.07,30.00,29.94,10,10,7,10,5,,0.00,1,,227
2013-7-20,89,80,72,74,72,69,95,76,54,29.97,29.93,29.88,10,9,2,13,6,21,0.00,3,Rain-Thunderstorm,221
2013-7-21,86,78,69,72,70,68,99,81,60,29.99,29.92,29.88,10,10,4,12,3,,0.00,5,Rain,193
2013-7-22,81,75,69,73,71,69,100,92,73,29.94,29.86,29.80,10,7,0,15,5,20,1.07,6,Fog-Rain,209
2013-7-23,88,80,73,75,73,67,100,81,62,29.87,29.82,29.75,10,9,2,9,7,,0.00,5,,221
2013-7-24,78,70,64,68,61,58,87,73,53,29.97,29.92,29.83,10,10,10,9,6,,0.00,2,Rain,335
2013-7-25,79,68,58,63,59,57,94,73,50,30.08,30.04,29.98,10,10,10,9,6,,0.00,1,,358
2013-7-26,81,69,57,67,61,57,99,75,51,30.09,30.04,29.99,10,9,6,9,2,,0.00,2,Rain,248
2013-7-27,78,72,63,66,64,57,97,84,61,29.99,29.95,29.88,10,10,8,13,6,17,0.06,5,Rain,260
2013-7-28,75,62,50,58,52,48,100,71,43,30.08,30.03,29.98,10,10,1,10,4,,0.00,0,,265
2013-7-29,80,66,53,63,59,53,97,66,46,30.18,30.16,30.09,10,10,9,10,3,,0.00,0,,244
2013-7-30,77,68,60,67,64,59,97,82,62,30.21,30.15,30.12,10,10,6,9,4,,0.08,7,Rain,106
2013-7-31,73,70,66,70,67,64,100,93,83,30.12,30.02,29.97,10,8,0,9,5,,0.00,7,Fog-Rain,158